date,batt_volt,AirTemp_C,Solar_kW,RH,Manual_BP,StationID,WS_ms,PTemp,WS_15min_max,Prog_Sig,Solar_Raw,Bar_mbar,Solar_MJ,Max_WS_2min,Pressure_Raw,Rain_mm,WD_15min_ave,Max_AirTemp_1min,WindDir,WS_15min_med,WS_15min_ave,Elevation_Correction
2017-08-01T00:11:54Z,12.86319,15.49898,0.0,81.59027,0,1156,1.4308,20.02352,,43690,0.0,1013.732,0.0,1.47,1011.932,0,,15.67,243.6097,,,1.80078
2017-08-01T00:26:58Z,12.88073,15.02964,0.0,84.20279,0,1156,1.8816,19.15371,,43690,0.0,1013.732,0.0,2.078,1011.932,0,,15.2,231.2544,,,1.80078
2017-08-01T00:41:56Z,12.89924,14.80244,0.0,86.11328,0,1156,3.2536,18.45559,,43690,0.0,1013.732,0.0,3.45,1011.932,0,,14.94,267.0568,,,1.80078
2017-08-01T00:56:59Z,12.90614,14.73909,0.0,86.39095,0,1156,1.862,17.86819,,43690,0.0,1013.732,0.0,2.038,1011.932,0,,14.81,244.1966,,,1.80078
2017-08-01T01:11:57Z,12.90618,15.14555,0.0,84.25862,0,1156,2.1168,17.46379,,43690,0.0,1013.932,0.0,2.45,1012.132,0,,15.11,254.4606,,,1.80078
2017-08-01T01:27:00Z,12.90618,14.84088,0.0,85.81582,0,1156,3.234,17.18589,,43690,0.0,1013.932,0.0,4.077,1012.132,0,,14.91,271.3093,,,1.80078
2017-08-01T01:41:59Z,12.91169,14.63776,0.0,87.77926,0,1156,2.9204,16.93512,,43690,0.0,1013.932,0.0,3.116,1012.132,0,,14.84,258.6187,,,1.80078
2017-08-01T01:57:03Z,12.91169,14.87473,0.0,85.81582,0,1156,2.3128,16.76116,,43690,0.0,1013.932,0.0,2.783,1012.132,0,,15.01,256.4075,,,1.80078
2017-08-01T02:12:00Z,12.91169,14.97629,0.0,85.74811,0,1156,2.2932,16.61205,,43690,0.0,1014.34,0.0,2.47,1012.539,0,,15.08,266.6945,,,1.80078
2017-08-01T02:27:03Z,12.9172,14.53621,0.0,87.91466,0,1156,3.8612,16.48779,,43690,0.0,1014.34,0.0,3.763,1012.539,0,,14.64,268.3049,,,1.80078
2017-08-01T02:42:05Z,12.9172,14.87473,0.0,86.8991,0,1156,4.0768,16.38838,,43690,0.0,1014.34,0.0,4.567,1012.539,0,,14.98,252.8984,,,1.80078
2017-08-01T02:57:01Z,12.90618,15.1117,0.0,84.6987,0,1156,4.2728,16.36353,,43690,0.0,1014.34,0.0,3.861,1012.539,0,,15.18,268.9539,,,1.80078
2017-08-01T03:12:03Z,12.91169,15.044,0.0,84.15705,0,1156,4.0572,16.33868,,43690,0.0,1014.015,0.0,3.998,1012.214,0,,15.18,291.0422,,,1.80078
2017-08-01T03:27:06Z,12.90618,15.14555,0.0,82.6337,0,1156,4.2532,16.36353,,43690,0.0,1014.015,0.0,4.743,1012.214,0,,15.15,288.2782,,,1.80078
2017-08-01T03:42:02Z,12.90618,15.31481,0.0,81.71968,0,1156,4.41,16.43808,,43690,0.0,1014.015,0.0,4.959,1012.214,0,,15.38,299.3584,,,1.80078
2017-08-01T03:57:04Z,12.90066,15.14555,0.0,83.14148,0,1156,3.5672,16.53749,,43690,0.0,1014.015,0.0,4.9,1012.214,0,,15.25,299.1902,,,1.80078
2017-08-01T04:12:06Z,12.90066,15.21326,0.0,81.48271,0,1156,4.7824,16.66175,,43690,0.0,1013.527,0.0,4.488,1011.726,0,,15.38,298.3249,,,1.80078
2017-08-01T04:27:07Z,12.89515,15.51793,0.0,79.95936,0,1156,6.0564,16.78601,,43690,0.0,1013.527,0.0,6.546,1011.726,0,,15.62,290.3933,,,1.80078
2017-08-01T04:42:04Z,12.88413,15.95801,0.0,78.40214,0,1156,4.4296,17.08649,,43690,0.0,1013.527,0.0,5.978,1011.726,0,,15.99,288.0859,,,1.80078
2017-08-01T04:57:05Z,12.88413,15.8226,0.0,78.77452,0,1156,6.2328,17.46379,,43690,0.0,1013.527,0.0,6.625,1011.726,0,,15.92,284.9613,,,1.80078
2017-08-01T05:12:07Z,12.8731,16.12727,0.0,77.04805,0,1156,4.5668,17.79138,,43690,0.0,1013.446,0.0,7.115,1011.645,0,,16.19,289.9366,,,1.80078
2017-08-01T05:27:10Z,12.8731,16.16112,0.0,76.84494,0,1156,1.4896,18.09637,,43690,0.0,1013.446,0.0,3.998,1011.645,0,,16.3,302.9156,,,1.80078
2017-08-01T05:42:08Z,12.86759,16.02572,0.0,77.52198,0,1156,3.234,18.30197,,43690,0.0,1013.446,0.0,6.037,1011.645,0,,16.09,285.3459,,,1.80078
2017-08-01T05:57:10Z,12.86207,16.39809,0.0,75.82936,0,1156,6.5856,18.50756,,43690,0.0,1013.446,0.0,8.11,1011.645,0,,16.4,276.9576,,,1.80078
2017-08-01T06:12:12Z,12.8615,16.15845,0.0,76.16427,0,1156,4.2728,18.66119,,43690,0.0,1012.877,0.0,6.938,1011.076,0,,16.33,296.0034,,,1.80078
2017-08-01T06:27:09Z,12.86615,15.68236,0.0,79.30928,0,1156,5.2136,18.71315,,43690,0.0,1012.877,0.0,5.841,1011.076,0,,15.79,299.5968,,,1.80078
2017-08-01T06:42:12Z,12.86673,15.44709,0.0,81.24116,0,1156,5.194,18.48045,,43690,0.0,1012.877,0.0,6.429,1011.076,0,,15.35,315.8527,,,1.80078
2017-08-01T06:57:10Z,12.87308,15.45002,0.0,82.1933,0,1156,8.1732,18.25,,43690,0.0,1012.877,0.0,8.58,1011.076,0,,15.52,293.7571,,,1.80078
2017-08-01T07:12:12Z,12.8731,15.38252,0.0,85.44344,0,1156,6.86,18.27711,,43690,0.0,1012.714,0.0,6.938,1010.913,0,,15.62,285.5141,,,1.80078
2017-08-01T07:27:14Z,12.8731,14.70547,0.0,92.85712,0,1156,6.1348,18.12349,,43690,0.0,1012.714,0.0,7.448001,1010.913,0,,14.64,293.9265,,,1.80078
2017-08-01T07:42:12Z,12.8731,14.36695,0.0,94.0081,0,1156,2.94,17.89304,,43690,0.0,1012.714,0.0,5.037,1010.913,0,,14.47,282.9904,,,1.80078
2017-08-01T07:57:14Z,12.88413,13.96072,0.0,94.24506,0,1156,4.9196,17.48864,,43690,0.0,1012.714,0.0,5.802,1010.913,0,,14.13,293.3015,,,1.80078
2017-08-01T08:12:16Z,12.88964,14.09613,0.0,93.94039,0,1156,4.4688,17.11134,,43690,0.0,1012.877,0.0,6.037,1011.076,0,,14.2,280.1783,,,1.80078
2017-08-01T08:27:18Z,12.89515,14.02842,0.0,93.83884,0,1156,3.8416,16.78601,,43690,0.0,1012.877,0.0,4.116,1011.076,0,,14.1,287.461,,,1.80078
2017-08-01T08:42:14Z,12.90066,13.92687,0.0,93.70343,0,1156,4.2924,16.56234,,43690,0.0,1012.877,0.0,5.057,1011.076,0,,14.1,300.3438,,,1.80078
2017-08-01T08:57:15Z,12.90618,13.99457,0.002890449,93.83884,0,1156,2.842,16.36353,,43690,0.2023314,1012.877,1.445224e-05,4.626,1011.076,0,,14.03,285.1536,,,1.80078
2017-08-01T09:12:16Z,12.90066,13.85916,0.009153214,93.80498,0,1156,3.5084,16.21668,,43690,0.640725,1013.283,4.576607e-05,3.822,1011.483,0,,13.96,284.745,,,1.80078
2017-08-01T09:27:18Z,12.90618,13.89375,0.02023441,94.2125,0,1156,3.7632,16.06757,,43690,1.416409,1013.283,0.0001011721,4.822,1011.483,0,,14.1,280.735,,,1.80078
2017-08-01T09:42:20Z,12.89617,14.03082,0.03420626,94.52009,0,1156,3.9984,16.06757,,43690,2.394439,1013.283,0.0001710313,4.606,1011.483,0,,14.1,276.994,,,1.80078
2017-08-01T09:57:17Z,12.89612,14.30077,0.09876325,94.38314,0,1156,3.822,16.19182,,43690,6.913427,1013.283,0.0004938162,4.586,1011.483,0,,14.3,287.373,,,1.80078
2017-08-01T10:12:21Z,12.88424,14.67183,0.1382678,93.46683,0,1156,3.0184,16.56234,,43690,9.678749,1012.728,0.0006913392,4.528,1010.927,0,,14.77,280.9005,,,1.80078
2017-08-01T10:27:17Z,12.87862,15.04402,0.1864156,91.4015,0,1156,3.43,17.31241,,43690,13.04909,1012.728,0.000932078,5.037,1010.927,0,,15.11,292.0759,,,1.80078
2017-08-01T10:42:20Z,12.86759,15.4841,0.2369904,89.53962,0,1156,4.312,18.14833,,43690,16.58933,1012.728,0.001184952,4.88,1010.927,0,,15.55,293.0373,,,1.80078
2017-08-01T10:57:23Z,12.85628,15.95709,0.2837141,88.28559,0,1156,3.2732,18.97297,,43690,19.85999,1012.728,0.001418571,4.234,1010.927,0,,15.92,282.9137,,,1.80078
2017-08-01T11:12:20Z,12.84351,16.15176,0.3347487,87.15538,0,1156,3.8808,19.78403,,43690,23.43241,1013.667,0.001673743,4.547,1011.866,0,,16.15,279.0502,,,1.80078
2017-08-01T11:27:24Z,12.83032,16.44724,0.3847444,85.41537,0,1156,4.4688,20.61092,,43690,26.93211,1013.667,0.001923722,4.175,1011.866,0,,16.65,280.9272,,,1.80078
2017-08-01T11:42:22Z,12.81915,16.98818,0.4328914,84.87313,0,1156,3.8024,21.39714,,43690,30.3024,1013.667,0.002164457,3.881,1011.866,0,,17.02,288.325,,,1.80078
2017-08-01T11:57:21Z,12.81679,17.18198,0.4791178,83.37065,0,1156,3.7632,22.14043,,43690,33.53824,1013.667,0.002395589,3.842,1011.866,0,,17.42,296.0139,,,1.80078
2017-08-01T12:12:23Z,12.80935,17.51052,0.5358861,82.5445,0,1156,3.1164,22.78432,,43690,37.51203,1013.889,0.00267943,4.155,1012.088,0,,17.51,276.3637,,,1.80078
2017-08-01T12:27:26Z,12.80379,17.91611,0.5406566,80.7172,0,1156,2.7636,23.46661,,43690,37.84596,1013.889,0.002703283,2.999,1012.088,0,,18.19,281.6942,,,1.80078
2017-08-01T12:42:24Z,12.79828,18.42356,0.6233695,78.75509,0,1156,3.0772,24.07209,,43690,43.63586,1013.889,0.003116847,3.352,1012.088,0,,18.66,264.0883,,,1.80078
2017-08-01T12:57:27Z,12.78175,18.86334,0.6700574,77.26659,0,1156,3.1556,24.77698,,43690,46.90402,1013.889,0.003350287,3.881,1012.088,0,,19.03,277.4188,,,1.80078
2017-08-01T13:12:25Z,12.77982,19.39557,0.7254142,77.72836,0,1156,3.5868,25.43216,,43690,50.77899,1013.344,0.003627071,4.371,1011.543,0,,19.53,281.0269,,,1.80078
2017-08-01T13:27:29Z,12.77199,19.31716,0.8404599,74.975,0,1156,3.5476,25.97664,,43690,58.8322,1013.344,0.0042023,3.587,1011.543,0,,19.59,282.4647,,,1.80078
2017-08-01T13:42:26Z,12.7554,20.02708,0.8500872,77.78157,0,1156,2.7244,26.65216,,43690,59.5061,1013.344,0.004250436,3.822,1011.543,0,,19.86,285.8489,,,1.80078
2017-08-01T13:57:29Z,12.74439,19.58744,0.5929932,76.09066,0,1156,3.8612,27.21471,,43690,41.50953,1013.344,0.002964966,3.959,1011.543,0,,19.99,289.7147,,,1.80078
2017-08-01T14:12:27Z,12.74439,19.14781,0.859653,78.5932,0,1156,2.9204,27.34123,,43690,60.1757,1014.063,0.004298265,4.39,1012.263,0,,19.08,274.4438,,,1.80078
2017-08-01T14:27:26Z,12.74439,19.79036,0.9014274,74.73794,0,1156,2.2148,27.56263,,43690,63.09992,1014.063,0.004507136,3.097,1012.263,0,,20.3,254.4668,,,1.80078
2017-08-01T14:42:29Z,12.73775,19.4805,0.8821422,75.91457,0,1156,3.92,27.78404,,43690,61.74996,1014.063,0.004410711,4.273,1012.263,0,,19.72,287.9113,,,1.80078
2017-08-01T14:57:31Z,12.73683,20.18649,0.8999707,73.44104,0,1156,4.116,27.84956,,43690,62.99795,1014.063,0.004499854,4.077,1012.263,0,,20.22,273.1993,,,1.80078
2017-08-01T15:12:33Z,12.73673,19.50976,0.9186571,73.40664,0,1156,2.8812,27.84956,,43690,64.306,1013.646,0.004593286,4.253,1011.846,0,,19.71,294.2751,,,1.80078
2017-08-01T15:27:29Z,12.73673,20.76018,0.9297495,75.7389,0,1156,3.2144,27.88119,,43690,65.08247,1013.646,0.004648747,3.959,1011.846,0,,20.73,271.2257,,,1.80078
2017-08-01T15:42:32Z,12.73673,20.55462,0.9619713,71.7459,0,1156,2.9008,27.97608,,43690,67.33799,1013.646,0.004809856,4.253,1011.846,0,,20.83,289.3138,,,1.80078
2017-08-01T15:57:29Z,12.7358,20.31793,1.040843,74.07881,0,1156,2.9204,28.04159,,43690,72.85899,1013.646,0.005204214,4.077,1011.846,0,,20.32,281.584,,,1.80078
2017-08-01T16:12:32Z,12.73589,20.68822,1.012464,71.60872,0,1156,2.548,28.17038,,43690,70.87248,1013.539,0.00506232,3.058,1011.738,0,,21.5,276.1273,,,1.80078
2017-08-01T16:27:34Z,12.72913,21.25803,0.847395,74.30747,0,1156,2.3128,28.202,,43690,59.31765,1013.539,0.004236975,3.058,1011.738,0,,21.02,274.9768,,,1.80078
2017-08-01T16:42:31Z,12.73465,20.92096,0.7295162,70.7251,0,1156,3.136,28.10485,,43690,51.06614,1013.539,0.003647581,4.586,1011.738,0,,20.75,312.7385,,,1.80078
2017-08-01T16:57:34Z,12.73639,21.67152,0.6275232,71.27389,0,1156,4.1748,27.84956,,43690,43.92662,1013.539,0.003137616,4.665,1011.738,0,,21.98,293.2802,,,1.80078
2017-08-01T17:12:36Z,12.73071,23.35943,0.9807017,69.8171,0,1156,3.332,28.26752,,43690,68.64912,1013.153,0.004903508,3.9,1011.353,0,,23.19,270.0072,,,1.80078
2017-08-01T17:27:33Z,12.71815,23.89485,0.9436351,67.6136,0,1156,3.0968,29.01759,,43690,66.05446,1013.153,0.004718176,3.058,1011.353,0,,23.56,285.8257,,,1.80078
2017-08-01T17:42:35Z,12.71255,23.04937,0.9176503,67.44424,0,1156,4.116,29.65018,,43690,64.23552,1013.153,0.004588252,5.292,1011.353,0,,23.29,257.045,,,1.80078
2017-08-01T17:57:33Z,12.70704,21.49427,0.8940714,70.18257,0,1156,2.7244,29.88514,,43690,62.585,1013.153,0.004470357,2.058,1011.353,0,,21.16,331.2374,,,1.80078
2017-08-01T18:12:36Z,12.70704,23.6917,0.8733798,67.00474,0,1156,4.5472,29.95292,,43690,61.13658,1014.052,0.004366898,5.449,1012.252,0,,23.08,271.0386,,,1.80078
2017-08-01T18:27:38Z,12.70154,23.01556,0.8151544,66.32861,0,1156,2.9204,30.29407,,43690,57.06081,1014.052,0.004075772,4.116,1012.252,0,,22.88,256.5649,,,1.80078
2017-08-01T18:42:35Z,12.70154,23.79312,0.8199664,63.92834,0,1156,4.4296,30.60133,,43690,57.39765,1014.052,0.004099832,4.782,1012.252,0,,24.03,264.3418,,,1.80078
2017-08-01T18:57:37Z,12.70154,24.1988,0.7872234,61.02097,0,1156,3.2536,30.77529,,43690,55.10564,1014.052,0.003936117,4.371,1012.252,0,,24.2,249.9882,,,1.80078
2017-08-01T19:12:39Z,12.70154,23.1846,0.7530669,64.2326,0,1156,3.4104,30.84307,,43690,52.71468,1013.566,0.003765335,3.763,1011.765,0,,23.86,228.7458,,,1.80078
2017-08-01T19:27:36Z,12.70704,21.96756,0.715535,71.33199,0,1156,3.8416,30.70525,,43690,50.08744,1013.566,0.003577674,5.468,1011.765,0,,22.0,252.8445,,,1.80078
2017-08-01T19:42:39Z,12.71255,22.2042,0.678011,67.30901,0,1156,5.0176,30.36184,,43690,47.46077,1013.566,0.003390055,5.018,1011.765,0,,22.58,265.4219,,,1.80078
2017-08-01T19:57:40Z,12.71805,22.10279,0.6380721,64.50306,0,1156,6.3504,30.0207,,43690,44.66504,1013.566,0.00319036,7.546001,1011.765,0,,22.41,279.2235,,,1.80078
2017-08-01T20:12:42Z,12.72356,22.1704,0.594764,63.38744,0,1156,7.0756,29.68407,,43690,41.63348,1013.403,0.00297382,7.37,1011.603,0,,22.34,284.4561,,,1.80078
2017-08-01T20:27:40Z,12.72907,21.89994,0.5456815,65.7877,0,1156,5.7232,29.28193,,43690,38.19771,1013.403,0.002728408,6.448,1011.603,0,,21.97,267.8702,,,1.80078
2017-08-01T20:42:43Z,12.72907,22.03517,0.5018923,63.42124,0,1156,5.1548,28.95208,,43690,35.13246,1013.403,0.002509461,6.194,1011.603,0,,22.27,284.1441,,,1.80078
2017-08-01T20:57:39Z,12.72907,22.00137,0.4576218,66.66668,0,1156,4.2336,28.69,,43690,32.03353,1013.403,0.002288109,6.488,1011.603,0,,22.17,275.191,,,1.80078
2017-08-01T21:12:42Z,12.73485,21.22495,0.4095018,69.81199,0,1156,3.6064,28.23363,,43690,28.66512,1014.215,0.002047509,4.684,1012.414,0,,21.22,247.0885,,,1.80078
2017-08-01T21:27:44Z,12.74314,21.607,0.3619135,67.59187,0,1156,2.6656,27.27797,,43690,25.33395,1014.215,0.001809568,3.116,1012.414,0,,21.64,264.2704,,,1.80078
2017-08-01T21:42:42Z,12.74984,19.95917,0.3114327,75.00814,0,1156,3.7828,26.4669,,43690,21.80029,1014.215,0.001557164,4.488,1012.414,0,,20.03,254.3456,,,1.80078
2017-08-01T21:57:41Z,12.7554,20.12849,0.05006165,72.57354,0,1156,3.3124,26.03764,,43690,3.504315,1014.215,0.0002503082,3.763,1012.414,0,,20.2,292.0675,,,1.80078
2017-08-01T22:12:45Z,12.7609,20.60194,0.04717356,69.46227,0,1156,3.5672,25.76427,,43690,3.302149,1013.82,0.0002358678,3.783,1012.019,0,,20.67,291.2031,,,1.80078
2017-08-01T22:27:42Z,12.7609,20.3314,0.1540361,68.48154,0,1156,2.6852,25.40279,,43690,10.78253,1013.82,0.0007701806,4.057,1012.019,0,,20.43,300.1832,,,1.80078
2017-08-01T22:42:46Z,12.77295,19.69486,0.1347816,69.87511,0,1156,2.0972,24.98257,,43690,9.434711,1013.82,0.0006739079,3.116,1012.019,0,,19.83,270.7251,,,1.80078
2017-08-01T22:57:44Z,12.781,19.43593,0.09819802,71.4449,0,1156,2.2932,24.51039,,43690,6.873862,1013.82,0.00049099,2.822,1012.019,0,,19.57,285.6933,,,1.80078
2017-08-01T23:12:43Z,12.78724,18.62645,0.06113309,74.56013,0,1156,1.568,23.95687,,43690,4.279316,1014.71,0.0003056654,2.45,1012.909,0,,18.76,290.7009,,,1.80078
2017-08-01T23:27:46Z,12.79828,17.47631,0.03128913,77.84166,0,1156,0.784,23.23843,,43690,2.190239,1014.71,0.0001564456,1.94,1012.909,0,,17.58,231.3745,,,1.80078
2017-08-01T23:42:43Z,12.82031,16.86737,0.005777648,79.93909,0,1156,2.6264,22.27825,,43690,0.4044354,1014.71,2.888824e-05,2.058,1012.909,0,,17.04,264.6887,,,1.80078
2017-08-01T23:57:48Z,12.84456,16.02866,0.0009630474,85.59934,0,1156,2.6656,21.09666,,43690,0.06741332,1014.71,4.815238e-06,2.646,1012.909,0,,16.03,251.8221,,,1.80078
2017-08-02T00:12:45Z,12.86868,16.20948,0.0,84.73723,0,1156,2.646,20.07547,,43690,0.0,1014.99,0.0,4.9,1013.189,0,,16.34,274.3875,,,1.80078
2017-08-02T00:27:49Z,12.8802,15.90875,0.0,86.40135,0,1156,1.2348,19.18081,,43690,0.0,1014.99,0.0,2.332,1013.189,0,,15.94,275.9441,,,1.80078
2017-08-02T00:42:46Z,12.88759,15.47858,0.0,87.77057,0,1156,2.254,18.53241,,43690,0.0,1014.99,0.0,2.313,1013.189,0,,15.72,279.8141,,,1.80078
2017-08-02T00:57:50Z,12.8951,15.41612,0.0,89.20065,0,1156,1.4112,17.99471,,43690,0.0,1014.99,0.0,1.842,1013.189,0,,15.45,271.5004,,,1.80078
2017-08-02T01:12:48Z,12.90066,15.07785,0.0,90.04737,0,1156,2.254,17.48864,,43690,0.0,1016.044,0.0,2.332,1014.244,0,,15.18,280.1543,,,1.80078
2017-08-02T01:27:52Z,12.90618,15.01014,0.0,89.7427,0,1156,2.9792,17.08649,,43690,0.0,1016.044,0.0,3.665,1014.244,0,,15.08,273.136,,,1.80078
2017-08-02T01:42:50Z,12.90618,14.94244,0.0,91.19835,0,1156,2.6656,16.81086,,43690,0.0,1016.044,0.0,3.254,1014.244,0,,14.98,289.7683,,,1.80078
2017-08-02T01:57:52Z,12.91169,14.73932,0.0,92.68786,0,1156,1.9992,16.56234,,43690,0.0,1016.044,0.0,3.058,1014.244,0,,14.71,273.5206,,,1.80078
2017-08-02T02:12:55Z,12.9172,14.57006,0.0,93.2295,0,1156,2.058,16.36353,,43690,0.0,1015.802,0.0,3.214,1014.001,0,,14.6,278.1353,,,1.80078
2017-08-02T02:27:54Z,12.91169,14.50235,0.0,94.10966,0,1156,1.6856,16.19182,,43690,0.0,1015.802,0.0,1.901,1014.001,0,,14.6,311.2078,,,1.80078
2017-08-02T02:42:52Z,12.91173,14.50464,0.0,94.35057,0,1156,1.8816,16.11727,,43690,0.0,1015.802,0.0,2.626,1014.001,0,,14.47,299.443,,,1.80078
2017-08-02T02:57:55Z,12.91213,14.46989,0.0,94.48444,0,1156,1.568,16.11727,,43690,0.0,1015.802,0.0,2.587,1014.001,0,,14.54,287.4202,,,1.80078
2017-08-02T03:12:53Z,12.91786,14.54025,0.0,94.52289,0,1156,0.9995999,16.06757,,43690,0.0,1016.314,0.0,2.078,1014.513,0,,14.54,337.6475,,,1.80078
2017-08-02T03:27:56Z,12.91816,13.96503,0.0,94.38802,0,1156,1.1564,16.02012,,43690,0.0,1016.314,0.0,1.274,1014.513,0,,14.2,346.7595,,,1.80078
2017-08-02T03:42:58Z,12.9199,14.17196,0.0,94.59778,0,1156,0.7252,15.89586,,43690,0.0,1016.314,0.0,1.45,1014.513,0,,14.21,323.9951,,,1.80078
2017-08-02T03:57:56Z,12.9145,14.37827,0.0,94.29854,0,1156,0.1372,15.82357,,43690,0.0,1016.314,0.0,0.8620001,1014.513,0,,14.45,336.3465,,,1.80078
2017-08-02T04:12:59Z,12.91518,13.39816,0.0,94.06473,0,1156,0.9799999,15.77386,,43690,0.0,1017.071,0.0,1.744,1015.27,0,,13.6,94.55334,,,1.80078
2017-08-02T04:27:56Z,12.92149,13.36837,0.0,94.3428,0,1156,0.7644,15.65187,,43690,0.0,1017.071,0.0,0.647,1015.27,0,,13.44,95.78672,,,1.80078
2017-08-02T04:42:59Z,12.92158,12.9969,0.0,94.61555,0,1156,1.1368,15.52987,,43690,0.0,1017.071,0.0,1.117,1015.27,0,,13.23,86.55595,,,1.80078
2017-08-02T04:57:56Z,12.9271,12.8615,0.0,94.98815,0,1156,0.7448,15.36042,,43690,0.0,1017.071,0.0,0.823,1015.27,0,,13.03,12.02167,,,1.80078
2017-08-02T05:12:59Z,12.9271,13.84355,0.0,95.1236,0,1156,1.1368,15.26327,,43690,0.0,1017.439,0.0,0.98,1015.638,0,,13.98,73.3803,,,1.80078
2017-08-02T05:28:01Z,12.92158,13.36946,0.0,94.88656,0,1156,0.5684,15.31072,,43690,0.0,1017.439,0.0,1.137,1015.638,0,,13.4,349.975,,,1.80078
2017-08-02T05:43:03Z,12.9271,13.50491,0.0,94.64951,0,1156,0.5488,15.31072,,43690,0.0,1017.439,0.0,0.451,1015.638,0,,13.64,85.78666,,,1.80078
2017-08-02T05:57:59Z,12.92158,13.234,0.0,94.64951,0,1156,0.5684,15.28813,,43690,0.0,1017.439,0.0,0.7450001,1015.638,0,,13.57,70.37487,,,1.80078
2017-08-02T06:13:00Z,12.9271,13.91128,0.0,95.32679,0,1156,0.6468,15.23842,,43690,0.0,1017.52,0.0,1.137,1015.72,0,,13.81,55.82865,,,1.80078
2017-08-02T06:28:02Z,12.92158,13.40332,0.0,94.81883,0,1156,0.0,15.28813,,43690,0.0,1017.52,0.0,0.627,1015.72,0,,13.44,109.1327,,,1.80078
2017-08-02T06:43:03Z,12.92158,13.234,0.0,94.92042,0,1156,0.0,15.26327,,43690,0.0,1017.52,0.0,0.7640001,1015.72,0,,13.47,18.92211,,,1.80078
2017-08-02T06:58:03Z,12.92158,13.43718,0.0,95.08974,0,1156,0.0,15.21357,,43690,0.0,1017.52,0.0,0.0,1015.72,0,,13.57,236.5144,,,1.80078
2017-08-02T07:13:04Z,12.92158,13.33559,0.0,95.36066,0,1156,0.6664,15.19098,,43690,0.0,1017.358,0.0,1.117,1015.557,0,,13.44,66.07111,,,1.80078
2017-08-02T07:28:06Z,12.92158,13.47105,0.0,95.49611,0,1156,0.7056,15.19098,,43690,0.0,1017.358,0.0,0.823,1015.557,0,,13.54,75.61633,,,1.80078
2017-08-02T07:43:07Z,12.9271,13.30173,0.0,95.6993,0,1156,0.294,15.14128,,43690,0.0,1017.358,0.0,0.706,1015.557,0,,13.47,86.17135,,,1.80078
2017-08-02T07:58:08Z,12.93261,12.96309,0.0,95.63156,0,1156,0.0,15.09383,,43690,0.0,1017.358,0.0,0.137,1015.557,0,,13.17,213.3607,,,1.80078
2017-08-02T08:13:05Z,12.93813,12.96309,0.0,96.17338,0,1156,0.8231999,14.97183,,43690,0.0,1017.358,0.0,0.784,1015.557,0,,12.93,87.95056,,,1.80078
2017-08-02T08:28:07Z,12.93813,12.69218,0.0,96.03794,0,1156,0.8231999,14.87694,,43690,0.0,1017.358,0.0,0.804,1015.557,0,,12.83,89.72977,,,1.80078
2017-08-02T08:43:05Z,12.93813,12.42127,0.00048185,96.30885,0,1156,0.7448,14.73235,,43690,0.0337295,1017.358,2.40925e-06,1.431,1015.557,0,,12.62,89.70573,,,1.80078
2017-08-02T08:58:08Z,12.94364,13.09855,0.0038548,96.68134,0,1156,0.8428,14.6352,,43690,0.269836,1017.358,1.9274e-05,1.117,1015.557,0,,13.13,80.68947,,,1.80078
2017-08-02T09:13:06Z,12.94364,12.72604,0.009637002,96.57975,0,1156,0.6468,14.6352,,43690,0.6745901,1017.927,4.818501e-05,0.7640001,1016.126,0,,12.96,96.36573,,,1.80078
2017-08-02T09:28:08Z,12.93261,12.79377,0.01686475,96.68134,0,1156,0.0,14.66005,,43690,1.180533,1017.927,8.432376e-05,0.49,1016.126,0,,13.06,194.3183,,,1.80078
2017-08-02T09:43:11Z,12.93261,13.20014,0.02553805,96.74907,0,1156,0.0,14.75494,,43690,1.787664,1017.927,0.0001276903,0.294,1016.126,0,,13.3,275.8253,,,1.80078
2017-08-02T09:58:08Z,12.92158,13.87742,0.1238355,96.71521,0,1156,0.0,14.97183,,43690,8.668482,1017.927,0.0006191774,0.353,1016.126,0,,14.05,292.7518,,,1.80078
2017-08-02T10:13:11Z,12.90504,14.31765,0.163829,96.13953,0,1156,1.666,15.57957,,43690,11.46803,1018.821,0.0008191451,1.313,1017.02,0,,14.35,103.17,,,1.80078
2017-08-02T10:28:09Z,12.88631,14.98602,0.2066844,94.56646,0,1156,1.7836,16.51264,,43690,14.46791,1018.821,0.001033422,1.901,1017.02,0,,14.99,98.53771,,,1.80078
2017-08-02T10:43:12Z,12.87868,15.61977,0.2471114,91.40194,0,1156,2.9596,17.36212,,43690,17.2978,1018.821,0.001235557,3.469,1017.02,0,,15.69,107.7744,,,1.80078
2017-08-02T10:58:14Z,12.86759,16.49967,0.2914212,88.72717,0,1156,1.9992,18.14833,,43690,20.39948,1018.821,0.001457106,2.078,1017.02,0,,16.47,109.7448,,,1.80078
2017-08-02T11:13:12Z,12.85656,16.90377,0.3376632,86.21885,0,1156,1.9208,18.89389,,43690,23.63642,1018.727,0.001688316,2.215,1016.926,0,,16.84,92.29174,,,1.80078
2017-08-02T11:28:10Z,12.843,17.40361,0.3848581,83.66848,0,1156,2.4696,19.60103,,43690,26.94007,1018.727,0.001924291,2.391,1016.926,0,,17.57,95.93174,,,1.80078
2017-08-02T11:43:13Z,12.84139,16.82027,0.4300148,85.28118,0,1156,1.8228,20.04837,,43690,30.10103,1018.727,0.002150074,3.704,1016.926,0,,16.96,105.8177,,,1.80078
2017-08-02T11:58:11Z,12.8467,17.02204,0.4834517,85.3131,0,1156,4.1552,20.39629,,43690,33.84162,1018.727,0.002417259,4.077,1016.926,0,,17.12,99.90463,,,1.80078
2017-08-02T12:13:14Z,12.84119,17.05586,0.5296779,85.9222,0,1156,3.0968,20.66288,,43690,37.07745,1019.202,0.002648389,4.645,1017.401,0,,17.12,98.87144,,,1.80078
2017-08-02T12:28:17Z,12.83568,17.52964,0.5744598,83.89174,0,1156,1.862,21.04244,,43690,40.21218,1019.202,0.002872299,4.684,1017.401,0,,17.56,105.551,,,1.80078
2017-08-02T12:43:15Z,12.82466,17.73268,0.616834,83.72254,0,1156,2.2148,21.47847,,43690,43.17838,1019.202,0.00308417,4.802,1017.401,0,,17.73,103.5808,,,1.80078
2017-08-02T12:58:14Z,12.81725,17.65437,0.6664311,87.02291,0,1156,4.6648,21.91903,,43690,46.65018,1019.202,0.003332156,4.665,1017.401,0,,17.66,112.1618,,,1.80078
2017-08-02T13:13:17Z,12.80417,17.54516,0.7429686,88.02617,0,1156,4.2728,22.53128,,43690,52.0078,1019.809,0.003714843,5.292,1018.008,0,,17.88,110.0571,,,1.80078
2017-08-02T13:28:19Z,12.79829,18.25444,0.7313438,85.85932,0,1156,3.6456,22.98088,,43690,51.19407,1019.809,0.003656719,4.9,1018.008,0,,18.25,97.56501,,,1.80078
2017-08-02T13:43:18Z,12.79828,17.91611,0.766464,85.55482,0,1156,3.9984,23.35139,,43690,53.65248,1019.809,0.00383232,4.586,1018.008,0,,18.39,106.6922,,,1.80078
2017-08-02T13:58:16Z,12.78726,18.22058,0.800038,83.76186,0,1156,4.508,23.69706,,43690,56.00266,1019.809,0.00400019,4.841,1018.008,0,,18.53,120.1428,,,1.80078
2017-08-02T14:13:20Z,12.78726,18.52505,0.8303514,83.55888,0,1156,1.6464,24.04272,,43690,58.1246,1019.433,0.004151757,4.057,1017.632,0,,18.59,156.2192,,,1.80078
2017-08-02T14:28:18Z,12.78175,19.67525,0.8592331,77.5034,0,1156,3.4496,24.42228,,43690,60.14632,1019.433,0.004296166,4.39,1017.632,0,,19.74,110.7514,,,1.80078
2017-08-02T14:43:22Z,12.76966,20.21207,0.8813758,72.38978,0,1156,3.1556,24.92383,,43690,61.6963,1019.433,0.004406879,3.979,1017.632,0,,20.35,96.47698,,,1.80078
2017-08-02T14:58:21Z,12.75603,20.87527,0.9025558,66.48933,0,1156,3.4496,25.4909,,43690,63.1789,1019.433,0.004512778,3.469,1017.632,0,,21.15,107.4773,,,1.80078